The Dalles, WA

5:24 PM PDT on September 20, 2019 (GMT -0700)
Columbia Gorge Regional-The Dalles

Weather History for KDLS - May, 2019

Change the Weather History Date:

Monday, May 20, 2019

  Actual Average Record
Temperature  
Mean Temperature 56 °F -  
Max Temperature 64 °F 75 °F 93 °F (1963)
Min Temperature 50 °F 49 °F 38 °F (1987)
Degree Days  
Heating Degree Days 8    
Growing Degree Days 6 (Base 50)    
Moisture  
Dew Point 45 °F    
Average Humidity 67    
Maximum Humidity 83    
Minimum Humidity 47    
Precipitation  
Precipitation 0.03 in - - ()
Sea Level Pressure  
Sea Level Pressure 29.75 in    
Wind  
Wind Speed 13 mph (NW)    
Max Wind Speed 22 mph    
Max Gust Speed 31 mph    
Visibility 10 miles    
Events Rain    
Averages and records for this station are not official NWS values.
T = Trace of Precipitation, MM = Missing Value Source: NWS Daily Summary

Daily Weather History Graph

Daily Weather History Graph

Search for Another Location

Airport or City:

Astronomy

May. 20, 2019 Rise Set
Actual Time 5:28 AM PDT 8:34 PM PDT
Civil Twilight 4:53 AM PDT 9:10 PM PDT
Nautical Twilight 4:07 AM PDT 9:56 PM PDT
Astronomical Twilight 3:12 AM PDT 10:51 PM PDT
Moon 10:42 PM PDT (5/20) 7:00 AM PDT (5/20)
Length of Visible Light 16h 17m
Length of Day
15h 06m
Waning Gibbous, 96% of the Moon is Illuminated
May 20
Waning Gibbous
May 26
Last Quarter
Jun 3
New
Jun 9
First Quarter
Jun 17
Full

Hourly Weather History & Observations

Time (PDT) Temp. Dew Point Humidity Pressure Visibility Wind Dir Wind Speed Gust Speed Precip Events Conditions
12:53 AM 57.9 °F 48.0 °F 70% 29.71 in 10.0 mi NW 10.4 mph - N/A   Overcast
1:53 AM 57.0 °F 48.0 °F 72% 29.73 in 10.0 mi NW 16.1 mph - N/A   Overcast
2:53 AM 55.9 °F 48.9 °F 77% 29.73 in 10.0 mi NNW 16.1 mph - N/A   Overcast
3:53 AM 55.9 °F 48.0 °F 75% 29.73 in 10.0 mi NNW 16.1 mph - 0.00 in Rain Light Rain
4:53 AM 57.0 °F 48.0 °F 72% 29.74 in 10.0 mi NW 17.3 mph - 0.00 in   Overcast
5:53 AM 57.0 °F 46.9 °F 69% 29.75 in 10.0 mi NW 15.0 mph - N/A   Overcast
6:53 AM 57.0 °F 46.9 °F 69% 29.76 in 10.0 mi NW 10.4 mph - N/A   Overcast
7:53 AM 57.0 °F 46.9 °F 69% 29.76 in 10.0 mi WNW 10.4 mph - N/A   Overcast
8:53 AM 57.0 °F 48.0 °F 72% 29.77 in 10.0 mi NW 12.7 mph 19.6 mph N/A   Overcast
9:53 AM 57.0 °F 45.0 °F 64% 29.77 in 10.0 mi NW 18.4 mph - N/A   Overcast
10:53 AM 59.0 °F 45.0 °F 60% 29.77 in 10.0 mi NNW 20.7 mph 28.8 mph N/A   Mostly Cloudy
11:53 AM 62.1 °F 45.0 °F 53% 29.75 in 10.0 mi NW 20.7 mph 31.1 mph N/A   Partly Cloudy
12:53 PM 61.0 °F 45.0 °F 56% 29.75 in 10.0 mi NNW 21.9 mph - N/A   Mostly Cloudy
1:53 PM 60.1 °F 44.1 °F 55% 29.75 in 10.0 mi NNW 19.6 mph 27.6 mph N/A   Overcast
2:53 PM 59.0 °F 43.0 °F 55% 29.76 in 10.0 mi NW 16.1 mph - N/A   Overcast
3:53 PM 59.0 °F 42.1 °F 53% 29.76 in 10.0 mi WNW 12.7 mph 26.5 mph N/A   Overcast
4:53 PM 59.0 °F 42.1 °F 53% 29.76 in 10.0 mi WNW 13.8 mph 24.2 mph N/A   Overcast
5:53 PM 57.9 °F 37.9 °F 47% 29.76 in 10.0 mi WNW 15.0 mph 24.2 mph N/A   Overcast
6:53 PM 54.0 °F 43.0 °F 66% 29.76 in 10.0 mi Calm Calm - 0.00 in   Overcast
7:53 PM 52.0 °F 46.0 °F 80% 29.75 in 10.0 mi North 3.5 mph - 0.02 in Rain Light Rain
8:53 PM 51.1 °F 46.0 °F 83% 29.74 in 10.0 mi WSW 4.6 mph - 0.01 in   Overcast
9:53 PM 51.1 °F 46.0 °F 83% 29.72 in 10.0 mi WSW 6.9 mph - 0.00 in   Overcast
10:53 PM 51.1 °F 45.0 °F 80% 29.71 in 10.0 mi Calm Calm - N/A   Overcast
11:53 PM 50.0 °F 45.0 °F 83% 29.71 in 10.0 mi WNW 4.6 mph - N/A   Overcast